Погода в Подмолодье

Россия / Новгородская область     56°57′58″N   31°11′20″E
темп.,
°C
ветер,
м/с
пор.,
м/с
влажн.,
%
обл.,
%
осадки,
мм/ч
давл.,
гПа
погр.,
м
13 мая, чт
чт1300:00+13св41394100 0.8 1015649
03:00+13в413927 0.9 1014772
06:00+10юв511902 0.1 1015755
09:00+12ююв59665 0.1 1016925
12:00+16юв595283 0.0 10141843
15:00+16вюв595855 0.1 10131462
18:00+12вюв41089100 1.6 1012792
21:00+10вюв389565 2.0 1011303
14 мая, пт
пт1400:00+8юв310950 0.4 1011310
03:00+7юв399680 0.4 1012237
06:00+8юв4129283 0.0 1011398
09:00+10юв51385100 0.0 1011627
12:00+16ююв7116074 0.0 10111128
15:00+15юв51264100 0.0 10101246
18:00+16ююв396893 0.1 10091072
21:00+13в25855 0.1 100888
15 мая, сб
сб1500:00+11вюв389668 0.0 1006158
03:00+12ююв31097100 0.4 1005328
06:00+12вюв2797100 1.6 1004221
09:00+14ююв3693100 4.1 1004624
12:00+16ююз368698 0.2 1004796
15:00+18юз4576100 1.3 10041010
18:00+14з2694100 4.3 1005272
21:00+12ююз2396100 5.6 100764
16 мая, вс
вс1600:00+10ююз229726 0.0 100940
03:00+8ююз11965 0.0 101013
06:00+9ююз11945 0.0 101131
09:00+14юз22789 0.0 1012387
12:00+19юз245475 0.0 10121569
15:00+20юз234512 0.0 10121715
18:00+20ююз23515 0.0 10121408
21:00+14в2273100 0.0 101211
17 мая, пн
пн1700:00+12ююв259251 0.0 101391
03:00+11ююв27969 0.0 1013136
06:00+13юв31088100 0.0 1013247
09:00+18юв41067100 0.0 1013519
12:00+22юв4753100 0.0 10111479
15:00+23вюв4749100 0.0 10101477
18:00+22вюв51162100 0.1 10071344
21:00+20вюв61576100 0.8 1005657